Regional Weather Roundup
Issued by NWS

Home | Current Version | Previous Version | Graphics & Text | Print | Product List | Glossary On
Versions: 1 2 3 4 5 6 7 8 9 10 11 12 13 14 15 16 17 18 19 20 21 22 23 24 25 26 27 28 29 30 31 32 33 34 35 36 37 38 39 40 41 42 43 44 45 46 47 48 49 50
235
ASUS44 KLIX 171805
RWRLA
LOUISIANA WEATHER ROUNDUP
NATIONAL WEATHER SERVICE NEW ORLEANS LA
1200 PM CST WED DEC 17 2014

NOTE: "FAIR" INDICATES FEW OR NO CLOUDS BELOW 12,000 FEET WITH NO
      SIGNIFICANT WEATHER AND/OR OBSTRUCTIONS TO VISIBILITY.
      SKY/WX - SKY CONDITION AND SIGNIFICANT WEATHER.
      TMP - AIR TEMPERATURE.    DP   - DEWPOINT TEMPERATURE.
      RH  - RELATIVE HUMIDITY.  PRES - PRESSURE.
      HX  - HEAT INDEX.         WCI  - WIND CHILL INDEX.

*  THESE STATIONS ARE NOT NWS OR FAA STATIONS AND ARE NOT UNDER
   NWS QUALITY CONTROL.

LAZ040-048-061>063-065-066-069-171900-
SOUTHEAST LOUISIANA

CITY           SKY/WX    TMP DP  RH WIND       PRES   REMARKS
N.O. AUDUBON     N/A     59  45  61 MISG        N/A
6HR MIN TEMP:  55; 6HR MAX TEMP:  59;

N.O. INTL ARPT PTSUNNY   58  43  57 N7        30.26F
6HR MIN TEMP:  46; 6HR MAX TEMP:  58;

N.O. LAKEFRONT FAIR      57  42  57 NE7       30.25F
6HR MIN TEMP:  50; 6HR MAX TEMP:  57;

N.O. DOWNTOWN* FAIR      55  43  62 NE6       30.25F
6HR MIN TEMP:  46; 6HR MAX TEMP:  55;

SLIDELL        FAIR      57  38  48 CALM      30.25F
6HR MIN TEMP:  32; 6HR MAX TEMP:  57;

BATON ROUGE    FAIR      56  38  50 NE5       30.25F
6HR MIN TEMP:  34; 6HR MAX TEMP:  56;

BOOTHVILLE     FAIR      60  49  66 NE8       30.23F
6HR MIN TEMP:  52; 6HR MAX TEMP:  60;

BELLE CHASSE   PTSUNNY   60  42  51 NE9       30.24F
6HR MIN TEMP:  40; 6HR MAX TEMP:  60;

BOGALUSA*        N/A     57  39  51 N5        30.27F
6HR MIN TEMP:  33; 6HR MAX TEMP:  58;

GALLIANO*      FAIR      61  46  58 MISG      30.24F
6HR MIN TEMP:  46; 6HR MAX TEMP:  62;

NEW ROADS*     FAIR      54  39  56 E5        30.27F
6HR MIN TEMP:  34; 6HR MAX TEMP:  55;

GONZALES*      FAIR      57  42  57 CALM      30.25F
6HR MIN TEMP:  36; 6HR MAX TEMP:  57;

HAMMOND*       NOT AVBL
HOUMA*         PTSUNNY   59  43  55 E6        30.24F
PORT FOURCHON* CLEAR     59  46  63 NE8       30.26F

$$

LAZ041-044-053-054-171900-
SOUTHWEST LOUISIANA

CITY           SKY/WX    TMP DP  RH WIND       PRES   REMARKS
LAKE CHARLES   CLOUDY    56  41  57 E8        30.25F
6HR MIN TEMP:  40; 6HR MAX TEMP:  56;

LAFAYETTE      FAIR      56  38  50 VRB5      30.26F
6HR MIN TEMP:  39; 6HR MAX TEMP:  57;

PATTERSON      FAIR      57  37  47 NE5       30.26F
6HR MIN TEMP:  39; 6HR MAX TEMP:  57;

SALT POINT       N/A     60  41  49 CALM      30.25S
6HR MIN TEMP:  45; 6HR MAX TEMP:  60;

NEW IBERIA     FAIR      57  40  52 NE6       30.26F
6HR MIN TEMP:  40; 6HR MAX TEMP:  58;

CHENAULT AIRPK CLOUDY    55  41  58 E8        30.26F

$$

LAZ027-028-171900-
CENTRAL LOUISIANA

CITY           SKY/WX    TMP DP  RH WIND       PRES   REMARKS
FORT POLK      CLOUDY    52  39  61 NE5       30.26F
6HR MIN TEMP:  39; 6HR MAX TEMP:  53;

ALEXANDRIA INT FAIR      52  39  61 VRB6      30.26F
6HR MIN TEMP:  34; 6HR MAX TEMP:  52;

ALEXANDRIA     FAIR      54  39  57 E5        30.28F
6HR MIN TEMP:  32; 6HR MAX TEMP:  54;


$$

LAZ001-002-171900-
NORTHWEST LOUISIANA

CITY           SKY/WX    TMP DP  RH WIND       PRES   REMARKS
SHREVEPORT     CLOUDY    45  35  68 E5        30.28F
6HR MIN TEMP:  36; 6HR MAX TEMP:  45;

BARKSDALE AFB  NOT AVBL
DTN SHREVEPORT CLOUDY    43  33  68 E3        30.30F
6HR MIN TEMP:  35; 6HR MAX TEMP:  43;


$$

LAZ014-016-171900-
NORTHEAST LOUISIANA

CITY           SKY/WX    TMP DP  RH WIND       PRES   REMARKS
MONROE         FAIR      49  36  61 VRB3      30.31F
6HR MIN TEMP:  32; 6HR MAX TEMP:  49;

TALLULAH       FAIR      49  38  65 CALM      30.30F
6HR MIN TEMP:  35; 6HR MAX TEMP:  50;


$$




USA.gov is the U.S. government's official web portal to all federal, state and local government web resources and services.